EW4533 Weather Reports


time (UTC)temp
F
wind
direction
speed
knots
gust
knots
rain 1hr
in
rain 24hr
in
rain mn
in
humidity
%
barometer
mb
20260507213052 81 122 1.7 6.1 0.00 0.02 0.02 100 1014.0
20260507211556 81 115 1.7 5.2 0.00 0.02 0.02 100 1013.9
20260507210059 81 141 3.5 7.8 0.00 0.02 0.02 100 1013.8
20260507204551 82 149 1.7 6.1 0.00 0.02 0.02 100 1013.8
20260507203103 82 140 2.6 6.1 0.00 0.02 0.02 100 1013.8
20260507201600 82 139 3.5 8.7 0.00 0.02 0.02 100 1013.8
20260507200105 83 141 2.6 6.1 0.00 0.02 0.02 100 1013.9
20260507194554 83 129 4.3 8.7 0.00 0.02 0.02 100 1013.9
20260507193058 83 101 3.5 8.7 0.00 0.02 0.02 100 1014.0
20260507191600 83 143 2.6 7.8 0.00 0.02 0.02 100 1014.1
20260507190058 83 164 3.5 8.7 0.00 0.02 0.02 100 1014.0
20260507184558 83 113 4.3 9.6 0.00 0.02 0.02 100 1014.1
20260507183058 84 139 3.5 8.7 0.00 0.02 0.02 100 1014.2
20260507181552 83 131 4.3 8.7 0.00 0.02 0.02 100 1014.3
20260507180052 84 158 4.3 7.8 0.00 0.02 0.02 100 1014.4
20260507174552 84 131 3.5 9.6 0.00 0.02 0.02 100 1014.6
20260507173051 84 147 2.6 8.7 0.00 0.02 0.02 100 1014.9
20260507171600 85 159 4.3 13.0 0.00 0.02 0.02 100 1015.1
20260507164600 85 131 2.6 9.6 0.00 0.02 0.02 100 1015.3
20260507163052 85 117 4.3 9.6 0.00 0.02 0.02 100 1015.4
20260507161555 85 130 5.2 10.4 0.00 0.02 0.02 100 1015.7
20260507160054 85 120 3.5 9.6 0.00 0.02 0.02 100 1015.8
20260507154559 85 165 3.5 8.7 0.00 0.02 0.02 100 1016.0
20260507153051 85 123 4.3 11.3 0.00 0.02 0.02 100 1016.2
20260507151709 85 44 4.3 8.7 0.00 0.02 0.02 100 1016.3
20260507150106 86 124 4.3 8.7 0.00 0.02 0.02 100 1016.4
20260507144550 86 124 2.6 10.4 0.00 0.02 0.02 100 1016.5
20260507143107 85 117 4.3 11.3 0.00 0.02 0.02 100 1016.4
20260507141555 85 129 3.5 12.2 0.00 0.02 0.02 100 1016.4
20260507140052 84 120 3.5 7.8 0.02 0.02 0.02 100 1016.5
20260507134550 82 134 0.9 5.2 0.02 0.02 0.02 100 1016.8
20260507133106 81 172 2.6 6.1 0.02 0.02 0.02 100 1017.0
20260507131553 82 253 2.6 7.8 0.02 0.02 0.02 100 1017.1
20260507130106 83 140 2.6 7.8 0.00 0.00 0.00 100 1016.8
20260507124556 83 125 1.7 8.7 0.00 0.00 0.00 100 1016.9
20260507123055 83 158 3.5 8.7 0.00 0.00 0.00 100 1016.7
20260507121611 83 144 2.6 8.7 0.00 0.00 0.00 100 1016.6
20260507120058 84 106 4.3 7.8 0.00 0.00 0.00 100 1016.4
20260507114633 84 119 3.5 8.7 0.00 0.00 0.00 100 1016.4
20260507113052 84 134 3.5 7.0 0.00 0.00 0.00 100 1016.4
20260507111555 83 141 3.5 7.8 0.00 0.00 0.00 100 1016.2
20260507110051 82 151 3.5 7.8 0.00 0.00 0.00 100 1016.0
20260507104547 81 144 2.6 6.1 0.00 0.00 0.00 100 1016.0
20260507103049 80 172 3.5 7.8 0.00 0.00 0.00 100 1016.0
20260507101603 80 59 0.0 5.2 0.00 0.00 0.00 100 1016.0
20260507100050 80 0 0.9 4.3 0.00 0.00 0.00 100 1015.9
20260507094549 80 0 0.9 4.3 0.00 0.00 0.00 100 1015.7
20260507093051 79 0 0.0 4.3 0.00 0.00 0.00 100 1015.7
20260507091552 79 127 0.0 2.6 0.00 0.00 0.00 100 1015.6
20260507090050 79 0 0.0 4.3 0.00 0.00 0.00 100 1015.6
20260507084628 79 0 0.0 3.5 0.00 0.00 0.00 100 1015.5
20260507083053 78 0 0.0 1.7 0.00 0.00 0.00 100 1015.5
20260507081552 78 0 0.0 1.7 0.00 0.00 0.00 100 1015.3
20260507080112 77 0 0.0 0.9 0.00 0.00 0.00 100 1015.3
20260507074554 77 0 0.0 2.6 0.00 0.00 0.00 100 1015.2
20260507073055 77 0 0.0 1.7 0.00 0.00 0.00 100 1015.2
20260507071551 77 0 0.0 0.0 0.00 0.00 0.00 100 1015.4
20260507070049 76 0 0.0 0.0 0.00 0.00 0.00 100 1015.5
20260507064549 77 0 0.0 0.0 0.00 0.00 0.00 100 1015.6
20260507063056 77 0 0.0 0.0 0.00 0.00 0.00 100 1015.6
20260507061549 77 0 0.0 0.0 0.00 0.00 0.00 100 1015.8
20260507060050 78 0 0.0 0.0 0.00 0.00 0.00 100 1016.0
20260507054548 78 0 0.0 0.0 0.00 0.00 0.00 100 1016.0
20260507053050 79 0 0.0 1.7 0.00 0.00 0.00 100 1016.1
20260507051550 79 0 0.0 3.5 0.00 0.00 0.00 100 1016.1
20260507050051 79 146 0.0 3.5 0.00 0.00 0.00 100 1016.3
20260507044547 79 0 0.0 3.5 0.00 0.00 0.00 100 1016.5
20260507043051 80 0 0.0 0.9 0.00 0.00 0.00 100 1016.7
20260507041551 80 128 0.0 2.6 0.00 0.00 0.00 100 1016.9
20260507040057 80 0 0.0 2.6 0.00 0.00 0.00 100 1017.2
20260507034556 80 124 0.9 3.5 0.00 0.00 0.00 100 1017.4
20260507033055 80 0 0.9 3.5 0.00 0.00 0.00 100 1017.6
20260507031550 80 0 0.0 1.7 0.00 0.00 0.00 100 1017.6
20260507030055 80 141 0.9 3.5 0.00 0.00 0.00 100 1017.7
20260507024604 81 142 1.7 4.3 0.00 0.00 0.00 100 1017.8
20260507023053 81 0 0.9 6.1 0.00 0.00 0.00 100 1017.8
20260507021553 81 64 0.9 4.3 0.00 0.00 0.00 100 1017.8
20260507020107 81 155 0.9 5.2 0.00 0.00 0.00 100 1017.8
20260507014601 80 135 0.9 2.6 0.00 0.00 0.00 100 1017.7
20260507013055 81 82 0.9 5.2 0.00 0.00 0.00 100 1017.7
20260507011551 81 93 0.9 3.5 0.00 0.00 0.00 100 1017.6
20260507010059 81 44 0.0 5.2 0.00 0.00 0.00 100 1017.6
20260507004602 81 71 1.7 5.2 0.00 0.00 0.00 100 1017.5
20260507003053 81 146 0.9 4.3 0.00 0.00 0.00 100 1017.4
20260507001551 80 0 0.0 3.5 0.00 0.00 0.00 100 1017.3
20260507000053 81 0 0.0 2.6 0.00 0.00 0.00 100 1017.1
20260506234553 81 0 0.9 5.2 0.00 0.00 0.00 100 1017.1
20260506233103 81 140 0.0 4.3 0.00 0.00 0.00 100 1016.8
20260506231556 81 147 0.9 4.3 0.00 0.00 0.00 100 1016.6
20260506230056 81 117 0.9 5.2 0.00 0.00 0.00 100 1016.6
20260506224553 81 129 1.7 4.3 0.00 0.00 0.00 100 1016.5
20260506223059 82 113 1.7 5.2 0.00 0.00 0.00 100 1016.4
20260506221612 82 124 0.9 4.3 0.00 0.00 0.00 100 1016.2
20260506220053 82 73 2.6 7.0 0.00 0.00 0.00 100 1015.9
20260506214556 82 132 1.7 6.1 0.00 0.00 0.00 100 1015.7